Location: *
(50.6089°N, 2.2719°E)
Time: 08:47:12
(UTC+00:00)

STARLINK-68 - Pass Details

Date: 18 October 2019
Orbit: 548 x 551 km, 53.0° (Epoch: 19 November)

Event Time Altitude Azimuth Distance (km) Brightness Sun altitude
Rises 17:27:06 0° 247° (WSW) 2,711 9.0 -6.1°
Reaches altitude 10° 17:29:20 10° 246° (WSW) 1,820 7.8 -6.4°
Maximum altitude 17:33:28 85° 159° (SSE) 557 3.6 -7.1°
Drops below altitude 10° 17:37:38 10° 71° (ENE) 1,827 5.6 -7.7°
Enters shadow 17:37:46 - 71° (ENE) 1,879 5.7 -7.7°
